RH
46 43 42 42 44 46 45 39 34 33 33 34 33 31 28 25 22 20 20 18 13 10 8 7 7 6 6 5 5 5 5 5 5 5 5 7 7 7 7 7 6 5 5 5 6 7 6 7 7 7 8 8 8 8 9 9 10 10 11 12 13 14 14 14 14 15 16 16 17 18 20 22 22 24 25 24 25 26 27 28 29 30 31 31 30 29 28 27
45 44 43 41 43 43 40 35 32 32 33 32 30 28 25 22 20 18 16 11 8 7 6 6 6 6 6 6 6 6 6 5 5 6 6 7 7 7 7 6 6 6 5 5 6 6 7 7 7 7 8 8 8 8 9 10 10 11 11 12 14 14 14 14 15 16 17 17 18 18 22 24 24 25 25 23 23 25 26 28 30 31 33 33 33 32 31 30
44 46 44 41 41 38 35 33 32 32 32 30 28 25 22 20 19 15 10 7 6 5 5 5 5 5 6 7 7 7 7 6 6 7 7 6 6 6 6 7 6 6 6 5 6 6 7 8 8 8 8 8 9 8 10 10 10 12 12 13 14 13 14 15 16 17 18 19 19 20 23 25 26 27 27 26 26 27 28 29 31 32 34 35 36 36 35 34
44 48 44 40 38 36 34 33 32 31 30 27 24 21 19 18 15 11 8 7 6 4 4 4 4 5 5 6 6 7 8 6 7 8 7 6 6 6 7 7 6 6 6 6 6 6 7 8 8 8 8 9 10 10 11 11 12 12 12 12 13 14 15 16 17 18 19 20 21 23 24 24 25 26 27 27 29 31 31 33 34 34 35 35 36 37 37 37
48 49 43 39 37 35 33 32 32 30 27 22 20 18 16 13 9 8 8 7 6 5 5 4 4 4 5 5 6 8 8 7 7 8 7 6 6 6 7 8 7 6 6 6 6 6 6 6 8 9 9 10 11 11 12 13 13 13 13 13 14 15 16 16 18 18 19 21 22 23 23 23 24 25 27 28 30 32 35 37 36 34 34 34 35 36 36 38
45 41 37 36 34 33 32 33 32 26 21 19 19 16 11 8 6 7 6 6 6 5 5 5 5 5 6 5 6 8 8 8 7 8 8 7 7 7 8 8 8 7 6 7 7 7 6 6 8 10 10 10 12 11 12 14 13 12 13 15 15 16 16 17 19 19 20 21 21 21 21 22 23 25 28 30 32 35 37 38 36 35 35 35 36 36 38 40
36 33 33 33 31 31 33 33 27 21 19 18 16 11 7 7 6 6 5 5 5 5 5 5 6 6 7 7 6 6 7 8 8 8 8 8 7 7 8 8 8 8 7 8 7 7 6 7 8 10 10 11 12 13 13 14 14 13 13 15 15 16 17 17 18 19 19 20 20 20 20 21 23 25 29 31 34 37 39 40 40 40 38 38 38 40 42 43
34 33 33 31 31 33 34 28 21 18 18 16 11 7 6 6 5 4 4 4 4 5 5 5 6 6 7 7 6 6 7 9 8 8 8 8 8 7 8 8 8 8 8 8 7 7 6 8 9 10 11 12 13 13 13 13 14 14 14 15 15 15 16 15 17 17 17 18 19 20 20 22 25 27 31 34 36 39 41 42 41 41 40 41 42 44 46 47
36 35 33 32 33 34 29 21 18 18 15 10 7 6 5 4 3 4 4 5 5 6 6 6 6 6 7 6 6 6 8 9 9 8 7 8 8 8 8 8 8 8 8 7 7 7 7 8 9 10 11 12 13 13 13 12 14 16 16 16 14 14 16 15 16 17 18 18 19 21 20 24 29 30 34 38 40 42 42 42 42 42 42 44 46 47 48 50
38 36 34 33 33 29 21 17 17 15 10 7 6 5 4 4 4 5 5 6 6 7 7 6 6 6 6 6 6 7 8 8 9 8 7 7 8 8 8 8 9 8 8 8 7 7 7 7 9 11 10 11 13 13 14 12 14 16 16 17 15 14 16 15 16 18 19 20 21 22 22 27 31 32 37 40 42 43 42 41 42 42 43 45 47 48 49 51
39 36 34 33 29 22 17 17 15 10 7 6 6 5 4 4 5 5 6 7 7 7 7 7 6 6 6 6 6 7 7 8 8 8 8 8 8 8 8 9 9 8 8 8 8 7 8 8 8 10 10 11 14 14 15 14 15 16 15 18 17 15 16 16 16 19 19 20 21 22 22 26 30 32 37 40 42 41 40 41 42 43 45 47 49 50 51 53
38 35 34 30 23 17 17 15 11 7 6 6 5 4 5 5 5 6 7 7 8 8 7 7 6 6 6 6 7 7 7 7 8 8 7 7 8 8 8 9 9 9 9 8 8 8 8 9 8 9 10 11 13 14 15 14 15 16 15 17 16 14 16 16 16 18 19 19 21 21 22 26 30 34 38 40 41 40 40 42 43 45 48 51 53 55 56 56
36 35 32 25 18 17 15 11 8 6 5 5 5 5 6 6 7 7 8 7 7 7 7 7 6 6 6 6 7 7 7 7 7 8 8 7 8 7 8 9 9 9 9 8 8 9 9 9 9 9 10 12 13 14 14 13 14 16 16 17 16 16 17 16 18 19 19 20 21 22 24 27 30 35 38 40 41 41 42 44 45 48 52 55 58 59 60 60
34 33 27 20 17 16 12 8 7 6 4 5 5 7 7 8 8 8 8 7 7 7 7 7 7 7 6 7 7 6 7 7 7 7 8 8 8 8 8 9 10 10 10 9 9 9 9 9 9 10 10 11 13 14 14 14 14 14 16 17 16 18 19 17 19 21 20 21 22 24 26 27 30 34 37 40 41 42 43 45 47 51 54 57 59 61 62 63
33 29 22 17 16 13 9 7 6 5 4 5 6 8 9 8 8 8 8 7 7 6 7 6 7 7 7 7 7 7 7 7 8 8 8 8 8 8 8 8 10 10 10 9 9 9 9 9 10 11 12 11 13 14 14 13 14 14 17 19 17 19 19 18 21 22 21 22 22 25 27 27 31 34 37 41 43 42 44 46 49 53 55 57 59 61 63 65
30 24 19 17 14 9 7 6 5 5 5 6 7 8 9 9 9 8 8 7 7 7 7 7 6 7 8 8 8 8 7 8 8 8 8 9 9 9 8 9 10 11 10 10 9 10 10 10 11 12 12 12 12 13 13 13 14 15 18 21 20 20 20 20 21 22 23 23 22 25 28 28 30 34 38 43 43 42 43 48 52 55 57 59 61 63 65 68
27 22 18 15 10 7 7 6 5 5 6 6 7 8 9 9 8 8 8 8 7 7 7 7 7 7 8 8 9 8 8 8 8 9 9 9 9 9 9 9 10 11 11 10 10 11 11 11 12 12 12 12 12 12 14 16 17 18 19 22 22 23 24 23 22 23 25 26 25 27 29 30 31 34 38 41 41 40 43 48 53 56 59 61 63 65 68 71
24 20 17 11 7 7 6 5 6 6 7 8 8 9 9 9 8 8 8 7 7 7 7 7 7 8 9 9 9 9 8 8 8 8 9 9 10 9 9 10 10 11 11 11 12 12 12 12 12 12 13 12 13 13 16 20 21 21 22 23 24 25 26 27 25 24 26 27 27 28 29 30 31 32 35 37 37 38 42 47 51 55 58 60 63 68 71 73
22 19 13 8 7 7 6 5 6 7 8 9 9 10 9 8 8 7 7 7 7 8 8 8 8 9 10 10 9 9 8 8 8 9 9 9 10 10 9 10 11 11 12 13 13 13 14 13 13 14 14 15 16 17 19 21 21 22 23 25 25 26 27 27 25 25 27 27 27 28 28 28 29 30 32 33 34 37 40 44 49 54 57 60 64 68 71 74
20 16 10 7 7 6 5 6 7 7 8 9 10 10 9 9 9 9 8 8 8 9 9 9 9 9 10 10 9 9 9 9 9 9 10 10 10 11 10 10 12 12 14 15 14 14 15 15 16 17 17 18 18 19 21 21 21 23 24 25 26 27 27 26 23 24 27 27 26 27 27 27 28 28 29 31 32 35 38 43 49 55 59 62 65 68 72 77
18 11 7 7 6 6 6 7 7 8 9 9 10 10 9 9 10 10 9 9 9 9 9 9 9 9 10 10 10 9 10 10 10 10 10 10 11 11 11 12 13 13 15 18 17 14 16 17 18 20 19 20 20 21 21 21 22 22 24 25 26 27 26 25 25 24 25 27 27 27 27 27 27 27 29 31 31 33 39 47 55 60 63 64 66 71 76 79
13 8 7 6 6 6 7 7 8 9 9 9 9 9 9 8 9 9 9 9 9 9 9 9 9 10 10 10 10 10 10 11 11 10 11 11 11 12 12 13 14 14 15 18 16 14 15 17 19 21 20 21 21 21 21 22 22 22 23 25 27 27 25 24 25 25 25 27 27 27 27 28 28 28 30 31 31 35 45 54 61 65 65 64 68 76 80 81
8 7 7 6 6 7 7 8 8 9 9 9 9 8 8 8 8 8 8 9 10 9 9 9 10 10 10 11 11 10 11 12 13 12 11 12 12 13 14 13 14 15 16 15 14 14 16 17 20 22 21 21 20 20 21 21 22 22 23 25 27 28 28 28 26 24 25 27 28 27 30 34 34 30 31 34 33 38 51 61 63 65 65 67 72 77 78 78
7 8 7 6 7 7 8 8 8 9 9 9 9 8 8 8 9 9 8 9 10 10 9 9 10 10 10 11 11 12 12 12 13 13 12 12 13 14 15 15 15 15 17 17 15 16 18 19 22 23 21 20 20 20 21 21 22 23 24 26 29 28 28 30 28 25 24 27 30 26 27 32 34 34 36 39 37 41 54 60 58 60 64 70 76 77 77 77
8 7 6 6 7 8 8 8 8 9 9 10 10 9 9 8 9 9 9 10 10 10 10 10 10 11 11 11 11 12 12 13 13 13 13 13 14 14 15 16 16 15 18 20 17 17 19 21 23 22 21 20 21 21 21 23 23 25 26 26 29 29 28 28 28 27 26 28 29 26 25 30 36 43 43 42 43 46 55 53 51 58 65 71 75 74 73 70
7 6 6 7 8 8 8 9 9 8 9 9 9 9 9 9 9 9 11 12 11 10 11 11 11 11 11 11 11 12 13 13 14 13 13 14 14 15 15 16 16 17 19 20 18 18 20 22 23 22 21 21 21 21 23 24 24 25 27 26 28 29 28 28 28 30 30 28 28 28 33 36 38 44 47 49 52 52 51 48 51 60 64 65 64 59 56 52
6 6 6 7 8 8 8 9 8 8 9 8 8 9 9 9 10 9 12 13 10 10 12 11 11 11 11 12 11 12 13 14 14 13 13 15 15 14 16 17 17 18 20 20 18 19 21 22 23 22 21 22 22 22 24 25 25 26 26 26 29 27 26 28 27 29 28 27 30 33 38 40 38 45 51 51 53 51 50 53 55 58 58 57 56 50 45 40
6 6 7 8 8 9 9 9 8 9 9 8 9 9 9 10 10 11 13 12 10 11 12 11 11 11 11 12 12 13 14 14 16 15 14 15 16 16 17 18 18 19 21 20 18 20 23 22 23 22 21 23 23 23 24 25 26 26 25 26 28 26 26 26 26 29 28 30 37 39 41 43 42 49 53 49 51 52 53 57 56 55 56 56 51 42 34 28
6 6 7 7 8 9 9 9 9 8 8 8 9 9 10 10 10 11 12 11 10 11 13 12 12 12 12 13 13 14 15 15 17 15 14 15 16 16 18 19 20 21 21 20 18 21 23 23 24 24 23 24 24 25 25 25 26 26 27 26 25 26 26 25 27 29 29 35 43 41 40 43 44 52 54 50 52 55 56 57 57 57 56 49 40 33 29 26
6 7 8 8 9 8 8 8 8 8 8 9 9 10 10 10 10 11 11 10 10 11 12 12 13 13 14 15 15 16 17 17 17 16 16 17 17 18 19 19 20 20 20 20 19 22 24 26 27 26 25 25 25 26 26 27 27 27 27 25 24 26 26 26 30 32 35 39 42 41 40 42 45 51 53 49 51 55 57 59 59 56 48 38 34 32 31 28
7 7 8 8 8 8 8 8 8 8 9 9 9 10 10 11 13 12 10 10 11 11 12 14 16 16 16 16 15 17 19 18 18 19 18 18 19 20 20 19 19 19 19 20 20 22 25 26 26 26 27 27 26 27 28 29 28 27 26 24 25 27 27 30 30 36 45 44 40 39 40 43 45 46 48 49 49 53 59 61 57 48 39 35 35 31 29 27
8 7 7 8 7 7 7 7 8 8 9 9 9 9 11 12 12 11 10 11 11 11 13 16 18 18 18 17 16 18 19 18 19 21 20 19 20 21 21 21 21 19 19 21 21 21 23 23 23 26 27 27 26 26 27 28 27 27 26 27 32 34 37 41 38 40 45 42 40 41 42 44 42 42 47 45 44 52 60 59 50 41 36 35 32 28 28 31
7 7 7 7 7 7 7 7 8 9 9 9 9 10 13 13 10 10 13 12 11 13 15 17 18 17 17 16 16 18 18 18 19 21 21 20 21 20 21 23 23 21 20 21 22 22 23 23 23 25 26 27 27 27 28 29 29 31 33 37 43 47 56 60 51 47 45 41 41 41 41 43 40 43 46 42 46 58 60 53 42 35 34 31 27 27 31 37
7 7 7 7 7 8 8 8 9 9 9 8 9 11 11 10 10 12 13 11 12 15 17 17 16 15 15 15 17 18 18 18 19 20 21 20 21 21 21 23 24 24 23 23 24 25 26 25 25 26 28 29 30 31 33 33 34 36 36 40 44 50 62 66 57 55 55 46 41 39 42 45 45 46 43 41 52 58 51 43 35 30 29 26 27 31 36 42
7 7 8 8 8 7 8 9 8 9 8 8 11 13 11 10 11 12 12 11 14 15 16 17 15 13 14 15 17 18 18 18 19 19 20 21 21 23 23 23 24 26 26 24 26 27 27 27 27 29 30 30 31 34 35 35 36 37 37 40 43 44 51 57 55 57 58 49 40 38 38 41 45 44 39 44 52 48 41 34 27 25 24 23 28 34 40 46
8 8 8 9 9 8 8 8 8 9 9 9 13 14 12 12 12 12 15 15 15 16 15 15 13 13 14 15 16 19 19 19 19 19 20 22 23 24 25 25 26 28 28 26 27 28 28 28 28 30 31 32 33 35 36 37 38 38 39 42 43 43 45 49 48 45 47 47 43 40 39 40 43 41 40 47 45 36 32 26 21 21 20 23 31 36 43 52
9 9 8 8 8 8 9 8 9 9 8 11 15 13 12 13 12 14 19 19 17 17 14 13 13 14 15 15 16 19 19 19 19 18 19 21 25 26 26 26 28 30 30 29 28 29 31 31 29 30 32 33 34 36 36 38 38 39 43 43 41 44 46 48 50 46 46 51 48 44 46 46 44 43 43 42 36 30 25 19 17 17 18 24 31 36 47 59
10 9 8 8 8 8 9 9 9 9 9 13 17 14 12 14 15 18 21 20 19 16 12 13 14 15 16 16 17 20 21 19 19 19 19 20 24 27 27 26 28 32 35 34 30 29 33 33 31 31 33 34 35 36 38 39 38 39 43 42 43 49 49 50 59 60 57 61 57 47 45 45 44 45 43 36 31 28 19 13 14 14 18 26 30 39 53 61
9 9 8 8 8 8 9 9 9 9 10 14 17 15 13 16 19 21 22 20 18 15 13 14 15 15 17 17 18 21 22 21 19 20 20 20 23 27 28 27 28 31 36 34 31 31 33 33 33 33 34 35 34 37 40 40 40 41 43 44 46 51 53 56 63 63 64 70 68 57 48 45 44 43 38 33 29 23 16 12 13 13 19 26 32 45 56 61
9 8 8 8 8 8 8 8 8 10 14 16 16 16 16 17 20 23 21 19 17 14 14 15 15 16 17 18 20 21 23 23 21 20 21 22 23 26 30 31 29 32 36 34 33 34 33 34 35 33 33 35 35 37 39 41 44 46 47 49 49 49 51 55 59 64 71 75 73 70 60 47 45 45 38 32 25 17 13 12 12 14 19 26 38 51 57 60
9 9 9 8 8 8 8 9 13 16 17 17 16 17 18 18 20 23 22 20 19 16 15 16 16 17 18 19 20 22 23 23 22 22 22 23 23 25 31 34 33 33 34 32 32 34 34 35 36 34 34 35 36 38 39 40 45 47 48 49 50 49 51 55 59 64 73 75 74 80 74 54 46 44 37 30 21 13 12 12 11 13 18 29 43 53 58 60
9 10 9 8 9 8 8 13 19 20 18 17 17 18 19 18 19 22 21 19 18 17 16 17 19 19 19 20 22 24 24 22 22 23 23 24 25 26 32 36 36 36 34 32 33 35 37 37 37 37 35 35 37 39 40 41 43 44 46 47 49 51 53 58 63 65 70 71 69 74 73 56 42 37 34 29 18 12 13 11 10 12 18 33 46 52 57 60
8 9 8 8 9 8 9 15 20 20 19 21 20 19 19 18 17 18 18 17 16 16 16 18 20 20 21 23 24 24 24 22 23 23 23 25 27 29 34 37 36 36 36 34 33 37 39 38 37 36 33 33 36 38 39 42 43 45 47 47 50 53 55 59 64 67 73 72 67 70 68 53 36 32 33 27 15 12 13 10 9 10 19 36 47 51 56 59
8 8 9 9 9 9 12 16 18 19 20 18 18 18 17 17 16 15 16 17 17 16 16 19 21 21 23 26 25 24 24 22 22 24 25 27 28 31 36 38 36 36 36 35 35 38 39 37 37 37 36 36 38 39 40 43 47 49 50 50 53 56 60 62 64 69 73 69 68 71 65 48 34 33 31 21 14 14 12 9 8 10 21 38 46 50 56 58
8 8 8 9 9 9 12 15 17 20 20 17 16 16 15 16 17 16 16 18 19 18 17 19 22 23 25 27 26 25 25 23 23 25 28 29 30 33 36 38 38 38 37 37 39 39 38 38 39 41 43 46 47 47 46 47 50 52 52 55 56 59 63 64 65 71 71 66 67 68 61 46 33 30 26 17 14 15 11 9 8 9 23 38 45 51 56 56
8 9 9 10 10 10 12 13 15 17 19 18 16 15 15 15 17 17 17 18 19 19 19 20 23 23 23 24 25 25 26 26 25 27 29 29 30 33 36 38 39 39 39 38 38 38 39 41 41 41 45 48 49 48 47 48 52 54 56 58 58 59 64 64 65 68 67 67 67 62 58 51 37 28 24 18 16 15 11 9 8 10 22 36 44 51 55 56
8 11 12 11 10 11 13 14 14 15 16 17 16 15 15 15 15 17 17 17 19 20 20 21 22 22 22 23 24 25 27 27 26 28 30 31 32 34 36 39 39 40 42 40 37 38 40 41 43 45 46 45 45 46 46 49 53 54 57 59 57 59 64 66 67 67 67 71 66 51 51 54 41 29 25 20 17 15 11 10 9 11 22 35 43 50 53 56
9 11 11 11 12 15 16 14 15 17 17 18 18 17 16 15 15 15 16 18 19 19 18 19 21 23 24 24 23 24 26 25 25 30 33 34 35 34 35 39 39 40 43 40 37 39 40 41 46 50 49 46 46 46 47 50 51 52 54 56 56 59 63 67 68 65 65 70 63 49 49 51 39 29 25 21 18 15 12 11 10 11 21 34 42 47 52 56
9 10 11 11 14 17 18 15 16 18 20 20 20 18 16 15 15 17 19 18 16 17 18 16 18 24 28 27 24 24 26 24 26 32 35 36 38 36 35 38 39 39 40 39 38 40 39 41 48 53 51 48 47 47 47 49 51 52 52 53 55 58 61 64 65 63 63 65 58 51 51 47 37 30 26 22 18 14 13 13 11 12 20 31 39 45 51 56
7 9 10 11 14 17 17 16 16 18 21 20 18 18 17 15 16 18 21 18 14 15 18 16 18 26 30 28 25 25 26 26 25 30 34 36 37 37 36 36 38 41 41 39 41 42 40 43 50 52 50 48 46 46 48 49 49 50 51 53 56 59 60 62 64 63 64 62 55 53 52 44 35 31 27 22 17 14 13 13 11 12 20 29 35 43 51 56
6 7 8 10 14 16 16 16 17 18 19 18 18 19 18 15 16 18 20 21 18 17 18 18 21 27 30 28 27 27 29 29 29 30 33 34 34 36 37 36 39 43 42 42 44 44 41 44 47 48 48 47 45 46 47 46 47 51 54 54 57 60 62 62 63 63 63 60 57 57 53 41 34 32 28 22 17 15 14 14 11 13 20 27 32 40 49 55
7 7 7 8 13 16 16 16 17 17 17 18 20 22 19 16 17 17 17 20 22 20 18 20 23 25 27 27 27 28 29 31 33 35 36 36 36 38 39 40 42 44 44 45 46 45 45 45 45 47 48 46 44 46 47 46 49 53 55 55 56 59 61 61 61 61 61 60 60 59 51 40 35 33 28 22 19 17 16 14 12 14 21 27 31 39 48 54